Wind_Speed
36 37 37 37 38 39 39 39 39 39 39 39 40 40 40 40 41 42 43 44 44 45 46 46 47 47 47 47 47 48 48 48 49 50 50 49 49 49 49 48 48 48 47
38 38 38 38 38 38 39 39 39 40 40 41 40 41 41 41 41 42 43 44 45 46 47 48 48 48 49 50 50 50 50 50 51 52 52 52 51 51 50 50 50 49 49
38 38 38 37 38 38 39 39 40 40 40 41 41 41 42 42 42 43 44 44 45 47 48 49 49 49 50 50 50 51 52 52 53 53 54 54 54 53 52 52 51 51 52
38 38 38 38 38 38 39 40 40 40 40 41 42 42 43 43 43 43 44 45 46 48 49 50 50 50 50 51 52 52 53 54 54 54 55 56 56 56 54 53 53 53 54
37 37 38 38 38 39 40 40 40 41 41 42 42 43 43 44 44 43 44 45 46 47 48 49 50 50 51 51 53 54 55 55 55 56 56 57 57 58 57 55 54 54 55
38 37 38 39 39 39 39 39 40 41 42 42 42 43 43 43 44 44 45 46 47 48 49 50 50 51 51 52 53 55 55 56 56 57 57 57 57 57 57 56 55 54 54
38 38 38 38 38 38 39 39 40 41 42 42 42 43 44 44 45 45 46 47 47 47 49 50 51 52 52 52 53 54 55 56 56 56 56 56 56 56 56 57 56 55 54
37 38 38 38 37 38 39 40 41 41 42 43 43 44 45 46 46 46 47 47 48 48 50 51 51 51 52 53 53 54 55 55 54 54 55 55 54 55 55 56 57 57 55
37 38 38 38 38 39 40 41 41 41 42 43 43 44 46 47 47 47 48 49 49 51 51 52 52 52 53 53 53 53 54 54 54 54 54 54 55 55 55 56 56 57 56
37 38 38 39 39 40 41 41 41 42 43 44 44 45 46 47 47 48 49 50 50 51 51 51 52 52 53 53 53 52 53 53 54 54 54 54 54 55 55 56 56 57 57
38 38 39 40 40 41 41 41 42 42 43 44 46 46 46 46 48 49 49 50 50 50 50 50 51 52 52 52 53 52 53 53 53 53 53 53 54 54 54 55 55 56 56
37 38 39 40 40 40 41 42 42 43 44 45 46 46 47 47 48 49 49 49 50 50 50 50 50 50 50 50 51 51 51 52 52 52 53 54 54 54 54 54 54 55 55
37 38 39 39 39 40 41 42 43 43 44 46 47 47 47 48 48 49 49 49 50 50 49 49 49 49 49 50 49 49 50 51 52 52 52 53 53 53 53 53 53 54 54
38 38 39 39 40 40 41 43 43 44 44 45 46 47 47 48 49 50 51 51 50 49 48 48 49 49 49 48 48 49 49 50 51 51 51 52 53 52 52 52 52 52 53
38 39 40 40 41 42 42 43 43 43 44 45 46 47 48 48 49 49 50 49 48 48 47 47 48 49 48 49 49 49 49 50 51 51 50 51 51 52 52 52 52 51 51
40 40 41 42 42 42 42 42 43 44 44 45 45 46 47 48 48 48 47 47 47 47 47 46 47 48 48 49 50 50 50 50 50 50 50 50 50 50 50 50 50 50 50
41 41 41 41 42 42 42 43 43 43 44 44 45 45 46 46 46 46 46 46 46 46 46 47 48 48 48 49 50 51 51 50 49 49 49 49 48 48 49 49 49 50 49
41 42 42 42 42 42 42 42 42 42 43 43 44 44 45 45 44 44 44 45 45 45 46 46 48 49 49 49 49 50 50 49 49 50 49 48 48 48 48 48 49 49 48
40 40 41 41 41 40 40 41 41 42 43 43 43 43 43 43 43 43 43 44 45 45 46 47 48 48 48 48 48 48 48 48 48 48 48 48 47 47 48 48 47 47 46
39 40 40 40 40 40 41 41 41 42 42 41 42 42 42 42 43 43 43 44 45 45 45 45 46 47 47 47 48 49 48 48 47 47 47 47 47 47 46 45 45 44 42
38 38 39 39 40 40 41 40 41 41 40 40 41 42 42 42 43 43 44 44 44 44 44 45 45 45 46 46 48 48 48 48 47 46 46 46 45 44 43 42 41 39 39
37 37 38 39 39 39 39 39 40 40 39 40 41 41 41 42 42 42 43 43 43 43 43 43 44 44 45 45 45 45 46 46 45 44 44 44 42 41 39 38 38 37 36
36 37 38 38 38 38 38 39 39 39 39 40 40 41 41 41 41 41 42 43 43 43 43 43 43 43 44 44 44 44 43 43 43 42 41 40 39 37 36 36 35 34 34
36 36 36 36 36 37 37 38 38 39 39 39 39 40 40 40 40 41 42 42 42 42 42 42 42 42 42 42 42 41 39 39 39 38 36 36 34 33 33 33 33 32 32
35 35 36 36 37 37 37 38 38 38 39 39 39 39 39 40 40 41 41 41 42 42 41 41 41 41 39 39 39 38 37 36 35 33 31 30 30 30 30 30 30 30 30
36 36 37 37 37 37 37 38 38 38 39 39 39 39 39 40 40 40 40 41 41 40 40 39 39 38 37 36 35 34 33 32 30 29 28 27 26 27 28 28 29 29 30
Wind_Direction
266 267 268 269 268 268 269 269 270 271 271 273 274 274 273 274 274 272 270 270 270 268 267 267 267 268 269 269 269 269 270 270 270 270 270 271 272 273 274 274 274 274 274
267 268 268 269 270 269 269 269 270 271 272 273 275 275 274 274 275 273 271 271 270 269 268 267 268 269 270 270 269 270 270 270 271 271 271 270 271 272 272 273 273 273 273
268 268 268 269 271 271 270 269 270 272 273 274 275 276 276 276 276 274 273 272 271 269 269 268 269 269 270 270 270 271 272 272 272 272 272 272 271 270 271 272 272 272 272
268 269 269 269 270 271 270 270 271 272 273 274 275 275 276 277 277 275 274 274 273 271 270 269 268 269 271 271 272 272 272 272 272 272 272 273 273 272 272 272 272 271 272
268 269 268 268 270 271 270 269 271 271 272 273 274 275 276 277 278 276 275 275 275 273 272 271 270 271 272 273 274 274 273 272 272 273 273 273 274 274 273 273 272 271 271
268 269 268 269 270 271 271 271 270 271 272 273 274 275 276 277 277 276 276 276 276 276 275 274 273 273 274 274 275 274 275 274 273 273 273 274 274 274 274 274 273 272 270
268 269 269 270 271 271 272 271 270 271 273 274 275 275 276 278 278 277 277 277 277 277 277 276 275 275 275 275 276 276 276 274 274 274 274 274 273 274 274 273 272 272 270
268 269 269 270 272 272 272 271 272 272 274 275 276 277 277 278 279 278 278 279 279 279 278 277 277 276 276 276 277 278 277 275 275 274 274 274 273 273 273 273 272 271 271
269 269 269 270 272 273 273 274 274 274 274 276 277 278 279 279 279 279 279 280 280 279 279 278 277 277 276 277 278 278 278 276 275 275 275 274 273 273 274 274 273 272 271
269 269 270 272 273 274 275 276 275 276 277 277 278 280 280 280 280 280 280 281 281 281 280 280 278 278 277 276 277 277 277 277 276 275 275 274 273 274 274 274 273 272 271
269 270 272 273 274 275 276 277 277 278 279 279 280 281 281 282 281 281 281 281 281 281 281 281 280 279 277 277 277 277 278 278 277 276 276 275 274 274 274 274 273 272 271
271 271 272 274 275 276 276 277 278 279 280 280 280 281 281 281 281 281 281 281 281 281 281 282 281 280 278 278 278 278 279 279 278 277 277 277 275 274 274 274 273 272 272
271 272 274 274 276 277 277 278 279 280 280 280 281 281 281 282 282 282 282 282 281 281 282 282 281 280 278 278 279 280 280 279 279 280 279 278 276 275 274 274 274 273 272
271 272 274 276 276 277 278 278 279 279 280 281 281 281 282 283 283 283 283 282 282 281 281 281 281 280 279 279 280 281 280 280 281 281 280 279 277 276 275 275 275 273 272
273 274 275 276 277 277 278 278 279 280 281 282 282 282 283 283 284 285 284 283 281 281 280 281 281 281 281 280 280 282 281 281 281 281 281 280 279 277 277 276 275 274 273
272 274 275 276 276 277 278 279 280 281 282 282 282 283 283 284 285 285 284 283 282 281 281 281 282 282 282 282 281 282 282 282 282 281 281 281 280 278 277 277 276 276 275
272 274 275 276 277 277 279 280 281 281 282 282 282 283 284 285 285 285 284 283 283 282 281 281 282 283 283 283 282 282 282 282 282 282 281 281 280 279 278 277 276 276 275
271 274 276 277 277 278 279 280 280 281 281 282 283 284 285 285 284 285 284 284 283 283 283 283 284 284 283 282 282 283 283 282 283 282 281 280 279 279 278 278 277 276 275
272 274 275 277 278 278 279 279 279 280 281 282 283 284 285 285 285 286 286 285 285 285 284 285 285 285 284 283 283 284 284 284 283 282 281 280 279 279 279 278 277 276 274
272 273 274 276 277 277 279 280 280 280 281 282 283 284 285 285 286 287 287 288 287 287 286 287 286 286 285 285 284 284 284 284 283 282 280 279 278 278 277 277 276 275 273
272 273 274 275 276 277 279 279 280 281 282 283 284 286 286 287 288 288 288 288 288 289 288 289 288 288 287 287 287 285 284 283 282 281 280 279 278 278 276 275 274 273 272
272 273 274 276 277 278 279 280 281 282 282 283 286 287 288 288 288 289 290 289 289 290 290 290 290 290 289 289 289 287 285 283 282 281 280 279 278 277 275 274 272 271 269
273 274 275 277 278 279 280 281 281 282 283 284 286 288 289 289 289 290 291 291 291 291 292 291 291 292 291 291 290 287 285 283 282 281 280 280 278 275 274 273 272 271 269
274 275 276 277 278 279 280 281 281 283 284 286 287 289 290 290 291 292 292 292 291 291 292 292 293 294 294 292 291 289 287 285 284 283 282 280 277 274 272 270 269 270 269
275 276 278 280 280 280 280 281 282 283 285 287 288 290 290 291 291 292 292 293 293 292 293 294 295 295 294 293 293 291 289 287 286 284 283 281 277 273 271 268 268 269 269
276 276 277 279 280 280 280 281 282 284 286 287 289 289 290 291 292 293 293 294 295 295 295 296 297 298 296 294 294 292 291 289 287 285 283 281 279 276 272 269 268 268 268
Height
5749 5749 5749 5748 5748 5748 5748 5748 5748 5748 5747 5747 5746 5746 5745 5744 5743 5742 5741 5741 5741 5741 5742 5743 5743 5744 5744 5744 5744 5743 5743 5742 5741 5741 5741 5741 5740 5739 5739 5738 5737 5736 5735
5739 5739 5739 5738 5738 5737 5737 5737 5737 5737 5737 5737 5736 5735 5734 5733 5732 5730 5729 5729 5729 5729 5730 5730 5731 5732 5732 5732 5731 5731 5730 5730 5728 5727 5727 5728 5729 5727 5726 5725 5724 5723 5723
5730 5729 5729 5728 5727 5727 5726 5726 5726 5727 5726 5726 5725 5724 5722 5721 5720 5719 5718 5718 5717 5717 5718 5718 5718 5718 5718 5718 5718 5717 5717 5716 5715 5713 5712 5712 5714 5714 5714 5712 5711 5710 5709
5719 5719 5718 5718 5717 5717 5716 5716 5716 5716 5716 5715 5714 5713 5712 5710 5709 5708 5707 5706 5705 5705 5705 5705 5705 5705 5704 5704 5704 5703 5702 5701 5701 5699 5697 5697 5697 5697 5699 5699 5697 5695 5694
5709 5709 5708 5708 5707 5707 5706 5706 5706 5706 5705 5704 5703 5702 5701 5699 5698 5696 5696 5695 5694 5693 5693 5692 5692 5691 5691 5690 5689 5688 5687 5685 5685 5685 5683 5682 5681 5680 5680 5683 5683 5681 5679
5699 5699 5698 5698 5697 5697 5696 5696 5695 5695 5695 5694 5693 5692 5690 5689 5687 5685 5685 5684 5682 5681 5680 5679 5679 5678 5677 5676 5675 5674 5672 5671 5670 5669 5668 5666 5666 5665 5664 5665 5666 5665 5665
5688 5688 5688 5688 5687 5686 5686 5685 5685 5684 5684 5683 5682 5681 5679 5678 5676 5675 5673 5672 5670 5669 5668 5667 5666 5665 5663 5662 5660 5659 5657 5656 5655 5653 5652 5651 5650 5649 5648 5648 5649 5649 5650
5678 5678 5678 5678 5677 5676 5675 5674 5674 5674 5673 5672 5671 5669 5668 5666 5665 5663 5661 5660 5658 5657 5655 5653 5652 5650 5649 5647 5645 5643 5642 5640 5639 5638 5636 5635 5635 5634 5632 5632 5632 5632 5634
5668 5668 5668 5668 5667 5666 5665 5664 5664 5663 5662 5661 5659 5658 5656 5654 5653 5651 5649 5647 5645 5643 5641 5639 5638 5636 5634 5632 5630 5629 5627 5625 5624 5623 5621 5620 5619 5618 5617 5616 5615 5615 5616
5658 5658 5658 5658 5657 5655 5654 5654 5653 5652 5651 5650 5648 5646 5644 5643 5641 5639 5637 5635 5632 5630 5627 5625 5623 5621 5620 5617 5615 5614 5612 5610 5609 5608 5607 5605 5604 5603 5601 5600 5599 5598 5598
5648 5648 5648 5647 5646 5644 5643 5643 5642 5641 5640 5638 5636 5634 5633 5631 5629 5626 5624 5621 5619 5616 5614 5611 5609 5607 5605 5603 5601 5599 5597 5596 5595 5593 5591 5590 5589 5587 5586 5585 5584 5583 5582
5637 5637 5637 5636 5635 5634 5633 5632 5631 5630 5628 5626 5624 5622 5620 5618 5616 5614 5611 5608 5605 5603 5600 5598 5595 5593 5591 5589 5587 5585 5583 5582 5580 5578 5577 5575 5573 5572 5571 5570 5568 5567 5567
5628 5627 5626 5625 5625 5624 5623 5621 5620 5618 5616 5614 5612 5610 5608 5605 5603 5600 5597 5595 5592 5589 5587 5584 5582 5579 5577 5575 5573 5571 5570 5568 5566 5564 5562 5560 5559 5557 5556 5554 5553 5552 5551
5618 5617 5616 5615 5614 5613 5612 5610 5609 5607 5604 5602 5600 5597 5595 5592 5590 5587 5584 5581 5578 5576 5573 5571 5568 5566 5563 5561 5560 5558 5556 5554 5552 5550 5548 5546 5544 5543 5541 5540 5538 5537 5536
5607 5606 5606 5605 5603 5602 5601 5599 5597 5595 5593 5590 5588 5586 5582 5579 5576 5573 5570 5567 5564 5562 5560 5558 5555 5553 5550 5548 5546 5544 5542 5540 5538 5536 5533 5531 5529 5527 5526 5525 5524 5522 5521
5597 5596 5595 5594 5592 5591 5589 5588 5586 5584 5581 5579 5576 5573 5570 5567 5564 5560 5557 5554 5552 5549 5547 5544 5542 5540 5537 5535 5533 5530 5528 5526 5524 5522 5519 5517 5515 5513 5511 5510 5509 5508 5507
5586 5585 5584 5583 5581 5579 5578 5576 5574 5572 5570 5567 5565 5562 5558 5555 5552 5548 5545 5542 5539 5536 5534 5531 5529 5526 5524 5521 5518 5516 5514 5512 5510 5507 5505 5503 5501 5499 5497 5496 5494 5493 5492
5575 5574 5572 5571 5570 5568 5566 5565 5563 5560 5558 5556 5553 5550 5547 5544 5540 5536 5533 5530 5527 5524 5521 5518 5516 5513 5510 5507 5504 5502 5500 5498 5495 5493 5491 5489 5487 5485 5483 5481 5480 5479 5478
5563 5562 5561 5560 5558 5557 5555 5553 5551 5549 5547 5544 5542 5538 5535 5532 5528 5525 5521 5518 5515 5512 5509 5506 5503 5499 5496 5493 5491 5488 5485 5483 5481 5479 5476 5474 5472 5471 5468 5467 5466 5466 5465
5552 5551 5550 5549 5547 5546 5544 5542 5540 5538 5536 5533 5530 5527 5524 5521 5517 5514 5510 5507 5503 5500 5497 5493 5489 5486 5483 5480 5477 5474 5471 5469 5467 5465 5463 5460 5458 5456 5454 5452 5452 5452 5452
5541 5540 5539 5538 5537 5535 5533 5531 5529 5527 5525 5522 5519 5516 5513 5510 5506 5503 5499 5496 5492 5489 5485 5482 5478 5474 5470 5467 5464 5460 5457 5455 5453 5451 5449 5447 5444 5442 5441 5440 5439 5439 5439
5530 5530 5528 5527 5526 5524 5522 5521 5519 5516 5514 5512 5509 5506 5502 5499 5495 5492 5488 5484 5481 5478 5474 5470 5466 5462 5458 5454 5451 5447 5444 5441 5439 5437 5436 5434 5431 5430 5428 5428 5427 5427 5427
5520 5519 5518 5516 5515 5513 5512 5510 5508 5506 5504 5501 5498 5495 5491 5488 5484 5481 5477 5473 5469 5466 5462 5458 5455 5451 5447 5442 5438 5435 5432 5428 5426 5425 5423 5421 5419 5418 5417 5417 5416 5416 5416
5510 5508 5507 5506 5505 5503 5501 5499 5497 5495 5493 5491 5488 5484 5481 5477 5474 5470 5466 5462 5458 5454 5450 5447 5443 5440 5435 5431 5427 5423 5420 5417 5415 5413 5411 5410 5408 5407 5407 5407 5406 5406 5407
5499 5498 5497 5496 5494 5492 5490 5489 5487 5485 5482 5480 5477 5473 5470 5466 5463 5459 5455 5451 5447 5442 5439 5435 5432 5428 5425 5420 5416 5412 5409 5407 5404 5403 5402 5400 5399 5398 5397 5397 5397 5397 5398
5488 5487 5486 5485 5483 5482 5480 5478 5476 5474 5472 5469 5466 5463 5460 5456 5452 5449 5445 5440 5436 5432 5427 5423 5420 5417 5413 5409 5406 5403 5400 5397 5395 5394 5393 5392 5390 5389 5389 5389 5389 5389 5389